Location: Fontevrault
(47.1823°N, 0.0493°E)
Time: 07:15:51
(UTC+00:00)

Cosmos 2263 Rocket - Pass Details

Date: 02 November 2021
Orbit: 825 x 847 km, 71.0° (Epoch: 06 December)

Event Time Altitude Azimuth Distance (km) Brightness Sun altitude
Rises 05:26:38 0° 174° (S) 3,368 5.5 -13.6°
Reaches altitude 10° 05:29:20 10° 163° (SSE) 2,436 4.9 -13.2°
Maximum altitude 05:34:06 30° 104° (ESE) 1,455 4.3 -12.4°
Drops below altitude 10° 05:38:53 10° 46° (NE) 2,440 5.1 -11.6°
Sets 05:41:34 0° 36° (NE) 3,375 5.7 -11.1°
